Year,Month,Day,Hour,Minute,Value (Times are PST for temperature in C)
2015,09,15,00,00,10.70
2015,09,15,00,01,10.70
2015,09,15,00,02,10.70
2015,09,15,00,03,10.70
2015,09,15,00,04,10.70
2015,09,15,00,05,10.70
2015,09,15,00,06,10.70
2015,09,15,00,07,10.70
2015,09,15,00,08,10.70
2015,09,15,00,09,10.70
2015,09,15,00,10,10.70
2015,09,15,00,11,10.70
2015,09,15,00,12,10.70
2015,09,15,00,13,10.70
2015,09,15,00,14,10.70
2015,09,15,00,15,10.70
2015,09,15,00,16,10.70
2015,09,15,00,17,10.70
2015,09,15,00,18,10.70
2015,09,15,00,19,10.60
2015,09,15,00,20,10.60
2015,09,15,00,21,10.60
2015,09,15,00,22,10.50
2015,09,15,00,23,10.50
2015,09,15,00,24,10.50
2015,09,15,00,25,10.40
2015,09,15,00,26,10.40
2015,09,15,00,27,10.40
2015,09,15,00,28,10.40
2015,09,15,00,29,10.30
2015,09,15,00,30,10.30
2015,09,15,00,31,10.30
2015,09,15,00,32,10.30
2015,09,15,00,33,10.20
2015,09,15,00,34,10.20
2015,09,15,00,35,10.20
2015,09,15,00,36,10.20
2015,09,15,00,37,10.10
2015,09,15,00,38,10.10
2015,09,15,00,39,10.10
2015,09,15,00,40,10.10
2015,09,15,00,41,10.10
2015,09,15,00,42,10.00
2015,09,15,00,43,10.00
2015,09,15,00,44,10.00
2015,09,15,00,45,10.00
2015,09,15,00,46,10.00
2015,09,15,00,47,10.10
2015,09,15,00,48,10.10
2015,09,15,00,49,10.10
2015,09,15,00,50,10.20
2015,09,15,00,51,10.20
2015,09,15,00,52,10.20
2015,09,15,00,53,10.30
2015,09,15,00,54,10.30
2015,09,15,00,55,10.40
2015,09,15,00,56,10.40
2015,09,15,00,57,10.50
2015,09,15,00,58,10.50
2015,09,15,00,59,10.50
2015,09,15,01,00,10.60
2015,09,15,01,01,10.60
2015,09,15,01,02,10.60
2015,09,15,01,03,10.60
2015,09,15,01,04,10.60
2015,09,15,01,05,10.60
2015,09,15,01,06,10.70
2015,09,15,01,07,10.70
2015,09,15,01,08,10.70
2015,09,15,01,09,10.70
2015,09,15,01,10,10.70
2015,09,15,01,11,10.70
2015,09,15,01,12,10.60
2015,09,15,01,13,10.60
2015,09,15,01,14,10.60
2015,09,15,01,15,10.60
2015,09,15,01,16,10.60
2015,09,15,01,17,10.60
2015,09,15,01,18,10.60
2015,09,15,01,19,10.60
2015,09,15,01,20,10.60
2015,09,15,01,21,10.60
2015,09,15,01,22,10.60
2015,09,15,01,23,10.60
2015,09,15,01,24,10.50
2015,09,15,01,25,10.50
2015,09,15,01,26,10.50
2015,09,15,01,27,10.50
2015,09,15,01,28,10.40
2015,09,15,01,29,10.40
2015,09,15,01,30,10.40
2015,09,15,01,31,10.40
2015,09,15,01,32,10.30
2015,09,15,01,33,10.30
2015,09,15,01,34,10.30
2015,09,15,01,35,10.30
2015,09,15,01,36,10.30
2015,09,15,01,37,10.30
2015,09,15,01,38,10.20
2015,09,15,01,39,10.20
2015,09,15,01,40,10.20
2015,09,15,01,41,10.30
2015,09,15,01,42,10.30
2015,09,15,01,43,10.30
2015,09,15,01,44,10.30
2015,09,15,01,45,10.30
2015,09,15,01,46,10.30
2015,09,15,01,47,10.30
2015,09,15,01,48,10.40
2015,09,15,01,49,10.40
2015,09,15,01,50,10.40
2015,09,15,01,51,10.40
2015,09,15,01,52,10.40
2015,09,15,01,53,10.40
2015,09,15,01,54,10.40
2015,09,15,01,55,10.40
2015,09,15,01,56,10.40
2015,09,15,01,57,10.40
2015,09,15,01,58,10.40
2015,09,15,01,59,10.40
2015,09,15,02,00,10.40
2015,09,15,02,01,10.50
2015,09,15,02,02,10.50
2015,09,15,02,03,10.50
2015,09,15,02,04,10.50
2015,09,15,02,05,10.50
2015,09,15,02,06,10.50
2015,09,15,02,07,10.60
2015,09,15,02,08,10.60
2015,09,15,02,09,10.60
2015,09,15,02,10,10.60
2015,09,15,02,11,10.60
2015,09,15,02,12,10.60
2015,09,15,02,13,10.60
2015,09,15,02,14,10.60
2015,09,15,02,15,10.60
2015,09,15,02,16,10.60
2015,09,15,02,17,10.60
2015,09,15,02,18,10.60
2015,09,15,02,19,10.60
2015,09,15,02,20,10.60
2015,09,15,02,21,10.60
2015,09,15,02,22,10.60
2015,09,15,02,23,10.60
2015,09,15,02,24,10.60
2015,09,15,02,25,10.60
2015,09,15,02,26,10.60
2015,09,15,02,27,10.50
2015,09,15,02,28,10.50
2015,09,15,02,29,10.40
2015,09,15,02,30,10.40
2015,09,15,02,31,10.40
2015,09,15,02,32,10.30
2015,09,15,02,33,10.30
2015,09,15,02,34,10.20
2015,09,15,02,35,10.20
2015,09,15,02,36,10.20
2015,09,15,02,37,10.20
2015,09,15,02,38,10.10
2015,09,15,02,39,10.10
2015,09,15,02,40,10.10
2015,09,15,02,41,10.10
2015,09,15,02,42,10.10
2015,09,15,02,43,10.10
2015,09,15,02,44,10.10
2015,09,15,02,45,10.10
2015,09,15,02,46,10.10
2015,09,15,02,47,10.10
2015,09,15,02,48,10.10
2015,09,15,02,49,10.10
2015,09,15,02,50,10.10
2015,09,15,02,51,10.10
2015,09,15,02,52,10.10
2015,09,15,02,53,10.10
2015,09,15,02,54,10.10
2015,09,15,02,55,10.10
2015,09,15,02,56,10.10
2015,09,15,02,57,10.10
2015,09,15,02,58,10.10
2015,09,15,02,59,10.20
2015,09,15,03,00,10.20
2015,09,15,03,01,10.20
2015,09,15,03,02,10.20
2015,09,15,03,03,10.20
2015,09,15,03,04,10.20
2015,09,15,03,05,10.20
2015,09,15,03,06,10.20
2015,09,15,03,07,10.20
2015,09,15,03,08,10.30
2015,09,15,03,09,10.30
2015,09,15,03,10,10.30
2015,09,15,03,11,10.30
2015,09,15,03,12,10.30
2015,09,15,03,13,10.30
2015,09,15,03,14,10.30
2015,09,15,03,15,10.30
2015,09,15,03,16,10.30
2015,09,15,03,17,10.30
2015,09,15,03,18,10.30
2015,09,15,03,19,10.30
2015,09,15,03,20,10.30
2015,09,15,03,21,10.30
2015,09,15,03,22,10.30
2015,09,15,03,23,10.30
2015,09,15,03,24,10.30
2015,09,15,03,25,10.30
2015,09,15,03,26,10.30
2015,09,15,03,27,10.30
2015,09,15,03,28,10.30
2015,09,15,03,29,10.30
2015,09,15,03,30,10.30
2015,09,15,03,31,10.20
2015,09,15,03,32,10.20
2015,09,15,03,33,10.20
2015,09,15,03,34,10.20
2015,09,15,03,35,10.20
2015,09,15,03,36,10.20
2015,09,15,03,37,10.20
2015,09,15,03,38,10.20
2015,09,15,03,39,10.20
2015,09,15,03,40,10.20
2015,09,15,03,41,10.20
2015,09,15,03,42,10.20
2015,09,15,03,43,10.20
2015,09,15,03,44,10.20
2015,09,15,03,45,10.20
2015,09,15,03,46,10.20
2015,09,15,03,47,10.20
2015,09,15,03,48,10.20
2015,09,15,03,49,10.20
2015,09,15,03,50,10.20
2015,09,15,03,51,10.10
2015,09,15,03,52,10.10
2015,09,15,03,53,10.10
2015,09,15,03,54,10.10
2015,09,15,03,55,10.10
2015,09,15,03,56,10.00
2015,09,15,03,57,10.00
2015,09,15,03,58,10.00
2015,09,15,03,59,10.00
2015,09,15,04,00,10.00
2015,09,15,04,01,10.00
2015,09,15,04,02,9.90
2015,09,15,04,03,10.00
2015,09,15,04,04,10.00
2015,09,15,04,05,10.00
2015,09,15,04,06,10.10
2015,09,15,04,07,10.10
2015,09,15,04,08,10.10
2015,09,15,04,09,10.10
2015,09,15,04,10,10.10
2015,09,15,04,11,10.10
2015,09,15,04,12,10.20
2015,09,15,04,13,10.20
2015,09,15,04,14,10.20
2015,09,15,04,15,10.10
2015,09,15,04,16,10.10
2015,09,15,04,17,10.10
2015,09,15,04,18,10.10
2015,09,15,04,19,10.10
2015,09,15,04,20,10.10
2015,09,15,04,21,10.00
2015,09,15,04,22,10.00
2015,09,15,04,23,10.00
2015,09,15,04,24,10.00
2015,09,15,04,25,10.00
2015,09,15,04,26,10.00
2015,09,15,04,27,10.00
2015,09,15,04,28,10.00
2015,09,15,04,29,10.10
2015,09,15,04,30,10.10
2015,09,15,04,31,10.10
2015,09,15,04,32,10.10
2015,09,15,04,33,10.10
2015,09,15,04,34,10.20
2015,09,15,04,35,10.20
2015,09,15,04,36,10.20
2015,09,15,04,37,10.20
2015,09,15,04,38,10.20
2015,09,15,04,39,10.20
2015,09,15,04,40,10.30
2015,09,15,04,41,10.30
2015,09,15,04,42,10.30
2015,09,15,04,43,10.40
2015,09,15,04,44,10.40
2015,09,15,04,45,10.40
2015,09,15,04,46,10.40
2015,09,15,04,47,10.40
2015,09,15,04,48,10.50
2015,09,15,04,49,10.50
2015,09,15,04,50,10.50
2015,09,15,04,51,10.40
2015,09,15,04,52,10.40
2015,09,15,04,53,10.40
2015,09,15,04,54,10.40
2015,09,15,04,55,10.40
2015,09,15,04,56,10.40
2015,09,15,04,57,10.40
2015,09,15,04,58,10.40
2015,09,15,04,59,10.40
2015,09,15,05,00,10.40
2015,09,15,05,01,10.40
2015,09,15,05,02,10.40
2015,09,15,05,03,10.30
2015,09,15,05,04,10.30
2015,09,15,05,05,10.30
2015,09,15,05,06,10.30
2015,09,15,05,07,10.30
2015,09,15,05,08,10.30
2015,09,15,05,09,10.30
2015,09,15,05,10,10.30
2015,09,15,05,11,10.30
2015,09,15,05,12,10.30
2015,09,15,05,13,10.20
2015,09,15,05,14,10.20
2015,09,15,05,15,10.20
2015,09,15,05,16,10.20
2015,09,15,05,17,10.10
2015,09,15,05,18,10.10
2015,09,15,05,19,10.10
2015,09,15,05,20,10.10
2015,09,15,05,21,10.10
2015,09,15,05,22,10.00
2015,09,15,05,23,10.10
2015,09,15,05,24,10.00
2015,09,15,05,25,10.00
2015,09,15,05,26,10.00
2015,09,15,05,27,10.00
2015,09,15,05,28,10.00
2015,09,15,05,29,10.00
2015,09,15,05,30,9.90
2015,09,15,05,31,9.90
2015,09,15,05,32,9.90
2015,09,15,05,33,9.90
2015,09,15,05,34,9.90
2015,09,15,05,35,9.80
2015,09,15,05,36,9.80
2015,09,15,05,37,9.80
2015,09,15,05,38,9.80
2015,09,15,05,39,9.80
2015,09,15,05,40,9.80
2015,09,15,05,41,9.80
2015,09,15,05,42,9.70
2015,09,15,05,43,9.70
2015,09,15,05,44,9.70
2015,09,15,05,45,9.70
2015,09,15,05,46,9.70
2015,09,15,05,47,9.70
2015,09,15,05,48,9.70
2015,09,15,05,49,9.70
2015,09,15,05,50,9.70
2015,09,15,05,51,9.70
2015,09,15,05,52,9.70
2015,09,15,05,53,9.70
2015,09,15,05,54,9.70
2015,09,15,05,55,9.70
2015,09,15,05,56,9.70
2015,09,15,05,57,9.70
2015,09,15,05,58,9.70
2015,09,15,05,59,9.70
2015,09,15,06,00,9.70
2015,09,15,06,01,9.70
2015,09,15,06,02,9.70
2015,09,15,06,03,9.60
2015,09,15,06,04,9.60
2015,09,15,06,05,9.60
2015,09,15,06,06,9.60
2015,09,15,06,07,9.60
2015,09,15,06,08,9.50
2015,09,15,06,09,9.50
2015,09,15,06,10,9.50
2015,09,15,06,11,9.50
2015,09,15,06,12,9.50
2015,09,15,06,13,9.40
2015,09,15,06,14,9.40
2015,09,15,06,15,9.40
2015,09,15,06,16,9.40
2015,09,15,06,17,9.30
2015,09,15,06,18,9.30
2015,09,15,06,19,9.30
2015,09,15,06,20,9.30
2015,09,15,06,21,9.20
2015,09,15,06,22,9.20
2015,09,15,06,23,9.20
2015,09,15,06,24,9.20
2015,09,15,06,25,9.20
2015,09,15,06,26,9.10
2015,09,15,06,27,9.10
2015,09,15,06,28,9.10
2015,09,15,06,29,9.10
2015,09,15,06,30,9.10
2015,09,15,06,31,9.10
2015,09,15,06,32,9.10
2015,09,15,06,33,9.10
2015,09,15,06,34,9.00
2015,09,15,06,35,9.00
2015,09,15,06,36,9.00
2015,09,15,06,37,8.90
2015,09,15,06,38,8.90
2015,09,15,06,39,8.90
2015,09,15,06,40,8.90
2015,09,15,06,41,8.90
2015,09,15,06,42,8.90
2015,09,15,06,43,8.80
2015,09,15,06,44,8.80
2015,09,15,06,45,8.80
2015,09,15,06,46,8.80
2015,09,15,06,47,8.80
2015,09,15,06,48,8.80
2015,09,15,06,49,8.80
2015,09,15,06,50,8.80
2015,09,15,06,51,8.80
2015,09,15,06,52,8.80
2015,09,15,06,53,8.80
2015,09,15,06,54,8.80
2015,09,15,06,55,8.80
2015,09,15,06,56,8.80
2015,09,15,06,57,8.80
2015,09,15,06,58,8.80
2015,09,15,06,59,8.80
2015,09,15,07,00,8.80
2015,09,15,07,01,8.80
2015,09,15,07,02,8.80
2015,09,15,07,03,8.80
2015,09,15,07,04,8.80
2015,09,15,07,05,8.80
2015,09,15,07,06,8.80
2015,09,15,07,07,8.80
2015,09,15,07,08,8.80
2015,09,15,07,09,8.80
2015,09,15,07,10,8.80
2015,09,15,07,11,8.80
2015,09,15,07,12,8.80
2015,09,15,07,13,8.80
2015,09,15,07,14,8.80
2015,09,15,07,15,8.80
2015,09,15,07,16,8.80
2015,09,15,07,17,8.70
2015,09,15,07,18,8.70
2015,09,15,07,19,8.70
2015,09,15,07,20,8.60
2015,09,15,07,21,8.60
2015,09,15,07,22,8.60
2015,09,15,07,23,8.60
2015,09,15,07,24,8.60
2015,09,15,07,25,8.60
2015,09,15,07,26,8.50
2015,09,15,07,27,8.50
2015,09,15,07,28,8.50
2015,09,15,07,29,8.50
2015,09,15,07,30,8.50
2015,09,15,07,31,8.50
2015,09,15,07,32,8.50
2015,09,15,07,33,8.50
2015,09,15,07,34,8.60
2015,09,15,07,35,8.60
2015,09,15,07,36,8.60
2015,09,15,07,37,8.60
2015,09,15,07,38,8.60
2015,09,15,07,39,8.60
2015,09,15,07,40,8.70
2015,09,15,07,41,8.70
2015,09,15,07,42,8.70
2015,09,15,07,43,8.70
2015,09,15,07,44,8.70
2015,09,15,07,45,8.70
2015,09,15,07,46,8.70
2015,09,15,07,47,8.70
2015,09,15,07,48,8.80
2015,09,15,07,49,8.80
2015,09,15,07,50,8.80
2015,09,15,07,51,8.80
2015,09,15,07,52,8.80
2015,09,15,07,53,8.80
2015,09,15,07,54,8.80
2015,09,15,07,55,8.80
2015,09,15,07,56,8.80
2015,09,15,07,57,8.80
2015,09,15,07,58,8.80
2015,09,15,07,59,8.90
2015,09,15,08,00,8.90
2015,09,15,08,01,8.90
2015,09,15,08,02,8.90
2015,09,15,08,03,9.00
2015,09,15,08,04,9.00
2015,09,15,08,05,9.10
2015,09,15,08,06,9.10
2015,09,15,08,07,9.20
2015,09,15,08,08,9.20
2015,09,15,08,09,9.20
2015,09,15,08,10,9.30
2015,09,15,08,11,9.30
2015,09,15,08,12,9.40
2015,09,15,08,13,9.40
2015,09,15,08,14,9.50
2015,09,15,08,15,9.50
2015,09,15,08,16,9.50
2015,09,15,08,17,9.60
2015,09,15,08,18,9.60
2015,09,15,08,19,9.70
2015,09,15,08,20,9.70
2015,09,15,08,21,9.70
2015,09,15,08,22,9.80
2015,09,15,08,23,9.80
2015,09,15,08,24,9.80
2015,09,15,08,25,9.90
2015,09,15,08,26,9.90
2015,09,15,08,27,9.90
2015,09,15,08,28,10.00
2015,09,15,08,29,10.00
2015,09,15,08,30,10.00
2015,09,15,08,31,10.10
2015,09,15,08,32,10.10
2015,09,15,08,33,10.10
2015,09,15,08,34,10.10
2015,09,15,08,35,10.20
2015,09,15,08,36,10.20
2015,09,15,08,37,10.20
2015,09,15,08,38,10.20
2015,09,15,08,39,10.20
2015,09,15,08,40,10.20
2015,09,15,08,41,10.30
2015,09,15,08,42,10.30
2015,09,15,08,43,10.30
2015,09,15,08,44,10.40
2015,09,15,08,45,10.40
2015,09,15,08,46,10.40
2015,09,15,08,47,10.50
2015,09,15,08,48,10.50
2015,09,15,08,49,10.60
2015,09,15,08,50,10.70
2015,09,15,08,51,10.80
2015,09,15,08,52,10.90
2015,09,15,08,53,11.00
2015,09,15,08,54,11.10
2015,09,15,08,55,11.20
2015,09,15,08,56,11.30
2015,09,15,08,57,11.40
2015,09,15,08,58,11.50
2015,09,15,08,59,11.60
2015,09,15,09,00,11.70
2015,09,15,09,01,11.80
2015,09,15,09,02,11.90
2015,09,15,09,03,12.00
2015,09,15,09,04,12.20
2015,09,15,09,05,12.30
2015,09,15,09,06,12.30
2015,09,15,09,07,12.40
2015,09,15,09,08,12.50
2015,09,15,09,09,12.60
2015,09,15,09,10,12.80
2015,09,15,09,11,12.80
2015,09,15,09,12,13.00
2015,09,15,09,13,13.10
2015,09,15,09,14,13.10
2015,09,15,09,15,13.20
2015,09,15,09,16,13.30
2015,09,15,09,17,13.40
2015,09,15,09,18,13.40
2015,09,15,09,19,13.50
2015,09,15,09,20,13.60
2015,09,15,09,21,13.70
2015,09,15,09,22,13.70
2015,09,15,09,23,13.80
2015,09,15,09,24,13.80
2015,09,15,09,25,13.80
2015,09,15,09,26,13.80
2015,09,15,09,27,13.80
2015,09,15,09,28,13.90
2015,09,15,09,29,13.90
2015,09,15,09,30,13.90
2015,09,15,09,31,13.90
2015,09,15,09,32,14.00
2015,09,15,09,33,14.00
2015,09,15,09,34,14.10
2015,09,15,09,35,14.10
2015,09,15,09,36,14.20
2015,09,15,09,37,14.20
2015,09,15,09,38,14.20
2015,09,15,09,39,14.20
2015,09,15,09,40,14.20
2015,09,15,09,41,14.20
2015,09,15,09,42,14.30
2015,09,15,09,43,14.30
2015,09,15,09,44,14.40
2015,09,15,09,45,14.40
2015,09,15,09,46,14.40
2015,09,15,09,47,14.50
2015,09,15,09,48,14.50
2015,09,15,09,49,14.60
2015,09,15,09,50,14.60
2015,09,15,09,51,14.70
2015,09,15,09,52,14.80
2015,09,15,09,53,14.90
2015,09,15,09,54,14.90
2015,09,15,09,55,15.00
2015,09,15,09,56,15.10
2015,09,15,09,57,15.10
2015,09,15,09,58,15.20
2015,09,15,09,59,15.20
2015,09,15,10,00,15.20
2015,09,15,10,01,15.20
2015,09,15,10,02,15.20
2015,09,15,10,03,15.20
2015,09,15,10,04,15.20
2015,09,15,10,05,15.20
2015,09,15,10,06,15.20
2015,09,15,10,07,15.20
2015,09,15,10,08,15.20
2015,09,15,10,09,15.20
2015,09,15,10,10,15.20
2015,09,15,10,11,15.10
2015,09,15,10,12,15.00
2015,09,15,10,13,15.00
2015,09,15,10,14,15.00
2015,09,15,10,15,15.00
2015,09,15,10,16,15.10
2015,09,15,10,17,15.10
2015,09,15,10,18,15.20
2015,09,15,10,19,15.20
2015,09,15,10,20,15.10
2015,09,15,10,21,15.10
2015,09,15,10,22,15.10
2015,09,15,10,23,15.00
2015,09,15,10,24,15.00
2015,09,15,10,25,15.00
2015,09,15,10,26,15.10
2015,09,15,10,27,15.10
2015,09,15,10,28,15.20
2015,09,15,10,29,15.20
2015,09,15,10,30,15.10
2015,09,15,10,31,15.00
2015,09,15,10,32,14.90
2015,09,15,10,33,14.80
2015,09,15,10,34,14.70
2015,09,15,10,35,14.70
2015,09,15,10,36,14.60
2015,09,15,10,37,14.50
2015,09,15,10,38,14.50
2015,09,15,10,39,14.40
2015,09,15,10,40,14.40
2015,09,15,10,41,14.30
2015,09,15,10,42,14.20
2015,09,15,10,43,14.10
2015,09,15,10,44,14.00
2015,09,15,10,45,13.90
2015,09,15,10,46,13.80
2015,09,15,10,47,13.70
2015,09,15,10,48,13.60
2015,09,15,10,49,13.50
2015,09,15,10,50,13.40
2015,09,15,10,51,13.40
2015,09,15,10,52,13.30
2015,09,15,10,53,13.20
2015,09,15,10,54,13.20
2015,09,15,10,55,13.10
2015,09,15,10,56,13.10
2015,09,15,10,57,13.10
2015,09,15,10,58,13.00
2015,09,15,10,59,13.00
2015,09,15,11,00,12.90
2015,09,15,11,01,12.90
2015,09,15,11,02,12.80
2015,09,15,11,03,12.80
2015,09,15,11,04,12.80
2015,09,15,11,05,12.80
2015,09,15,11,06,12.80
2015,09,15,11,07,12.80
2015,09,15,11,08,12.80
2015,09,15,11,09,12.80
2015,09,15,11,10,12.90
2015,09,15,11,11,13.00
2015,09,15,11,12,13.10
2015,09,15,11,13,13.20
2015,09,15,11,14,13.20
2015,09,15,11,15,13.30
2015,09,15,11,16,13.30
2015,09,15,11,17,13.40
2015,09,15,11,18,13.40
2015,09,15,11,19,13.50
2015,09,15,11,20,13.50
2015,09,15,11,21,13.60
2015,09,15,11,22,13.60
2015,09,15,11,23,13.70
2015,09,15,11,24,13.70
2015,09,15,11,25,13.70
2015,09,15,11,26,13.70
2015,09,15,11,27,13.70
2015,09,15,11,28,13.70
2015,09,15,11,29,13.70
2015,09,15,11,30,13.70
2015,09,15,11,31,13.70
2015,09,15,11,32,13.70
2015,09,15,11,33,13.70
2015,09,15,11,34,13.70
2015,09,15,11,35,13.70
2015,09,15,11,36,13.80
2015,09,15,11,37,13.80
2015,09,15,11,38,13.80
2015,09,15,11,39,13.80
2015,09,15,11,40,13.90
2015,09,15,11,41,13.90
2015,09,15,11,42,13.90
2015,09,15,11,43,13.90
2015,09,15,11,44,13.90
2015,09,15,11,45,13.90
2015,09,15,11,46,13.90
2015,09,15,11,47,13.90
2015,09,15,11,48,13.90
2015,09,15,11,49,13.80
2015,09,15,11,50,13.90
2015,09,15,11,51,14.00
2015,09,15,11,52,14.00
2015,09,15,11,53,14.20
2015,09,15,11,54,14.30
2015,09,15,11,55,14.50
2015,09,15,11,56,14.70
2015,09,15,11,57,14.80
2015,09,15,11,58,14.90
2015,09,15,11,59,15.00
2015,09,15,12,00,15.20
2015,09,15,12,01,15.20
2015,09,15,12,02,15.30
2015,09,15,12,03,15.30
2015,09,15,12,04,15.30
2015,09,15,12,05,15.30
2015,09,15,12,06,15.20
2015,09,15,12,07,15.20
2015,09,15,12,08,15.10
2015,09,15,12,09,15.00
2015,09,15,12,10,15.00
2015,09,15,12,11,14.90
2015,09,15,12,12,14.90
2015,09,15,12,13,15.00
2015,09,15,12,14,15.10
2015,09,15,12,15,15.10
2015,09,15,12,16,15.20
2015,09,15,12,17,15.30
2015,09,15,12,18,15.30
2015,09,15,12,19,15.40
2015,09,15,12,20,15.40
2015,09,15,12,21,15.40
2015,09,15,12,22,15.40
2015,09,15,12,23,15.40
2015,09,15,12,24,15.40
2015,09,15,12,25,15.40
2015,09,15,12,26,15.50
2015,09,15,12,27,15.50
2015,09,15,12,28,15.50
2015,09,15,12,29,15.60
2015,09,15,12,30,15.60
2015,09,15,12,31,15.70
2015,09,15,12,32,15.80
2015,09,15,12,33,15.90
2015,09,15,12,34,16.00
2015,09,15,12,35,16.00
2015,09,15,12,36,16.10
2015,09,15,12,37,16.10
2015,09,15,12,38,16.10
2015,09,15,12,39,16.10
2015,09,15,12,40,16.10
2015,09,15,12,41,16.10
2015,09,15,12,42,16.20
2015,09,15,12,43,16.20
2015,09,15,12,44,16.30
2015,09,15,12,45,16.30
2015,09,15,12,46,16.40
2015,09,15,12,47,16.50
2015,09,15,12,48,16.60
2015,09,15,12,49,16.70
2015,09,15,12,50,16.70
2015,09,15,12,51,16.70
2015,09,15,12,52,16.70
2015,09,15,12,53,16.70
2015,09,15,12,54,16.70
2015,09,15,12,55,16.70
2015,09,15,12,56,16.60
2015,09,15,12,57,16.60
2015,09,15,12,58,16.60
2015,09,15,12,59,16.70
2015,09,15,13,00,16.70
2015,09,15,13,01,16.60
2015,09,15,13,02,16.60
2015,09,15,13,03,16.50
2015,09,15,13,04,16.50
2015,09,15,13,05,16.40
2015,09,15,13,06,16.30
2015,09,15,13,07,16.30
2015,09,15,13,08,16.20
2015,09,15,13,09,16.20
2015,09,15,13,10,16.10
2015,09,15,13,11,16.00
2015,09,15,13,12,16.00
2015,09,15,13,13,15.90
2015,09,15,13,14,15.80
2015,09,15,13,15,15.80
2015,09,15,13,16,15.80
2015,09,15,13,17,15.70
2015,09,15,13,18,15.70
2015,09,15,13,19,15.60
2015,09,15,13,20,15.50
2015,09,15,13,21,15.50
2015,09,15,13,22,15.40
2015,09,15,13,23,15.40
2015,09,15,13,24,15.40
2015,09,15,13,25,15.30
2015,09,15,13,26,15.30
2015,09,15,13,27,15.30
2015,09,15,13,28,15.20
2015,09,15,13,29,15.20
2015,09,15,13,30,15.20
2015,09,15,13,31,15.20
2015,09,15,13,32,15.20
2015,09,15,13,33,15.20
2015,09,15,13,34,15.20
2015,09,15,13,35,15.20
2015,09,15,13,36,15.20
2015,09,15,13,37,15.20
2015,09,15,13,38,15.20
2015,09,15,13,39,15.10
2015,09,15,13,40,15.10
2015,09,15,13,41,15.10
2015,09,15,13,42,15.10
2015,09,15,13,43,15.10
2015,09,15,13,44,15.00
2015,09,15,13,45,14.90
2015,09,15,13,46,14.90
2015,09,15,13,47,14.90
2015,09,15,13,48,14.90
2015,09,15,13,49,14.90
2015,09,15,13,50,14.90
2015,09,15,13,51,14.90
2015,09,15,13,52,15.00
2015,09,15,13,53,15.00
2015,09,15,13,54,15.10
2015,09,15,13,55,15.10
2015,09,15,13,56,15.10
2015,09,15,13,57,15.20
2015,09,15,13,58,15.10
2015,09,15,13,59,15.10
2015,09,15,14,00,15.20
2015,09,15,14,01,15.20
2015,09,15,14,02,15.20
2015,09,15,14,03,15.20
2015,09,15,14,04,15.20
2015,09,15,14,05,15.10
2015,09,15,14,06,15.10
2015,09,15,14,07,15.00
2015,09,15,14,08,15.00
2015,09,15,14,09,14.90
2015,09,15,14,10,14.90
2015,09,15,14,11,14.90
2015,09,15,14,12,14.90
2015,09,15,14,13,14.90
2015,09,15,14,14,14.90
2015,09,15,14,15,14.90
2015,09,15,14,16,14.90
2015,09,15,14,17,14.90
2015,09,15,14,18,15.00
2015,09,15,14,19,15.00
2015,09,15,14,20,15.00
2015,09,15,14,21,15.00
2015,09,15,14,22,14.90
2015,09,15,14,23,14.90
2015,09,15,14,24,14.90
2015,09,15,14,25,14.90
2015,09,15,14,26,14.80
2015,09,15,14,27,14.80
2015,09,15,14,28,14.80
2015,09,15,14,29,14.90
2015,09,15,14,30,14.90
2015,09,15,14,31,14.90
2015,09,15,14,32,14.90
2015,09,15,14,33,14.90
2015,09,15,14,34,14.90
2015,09,15,14,35,14.90
2015,09,15,14,36,14.90
2015,09,15,14,37,14.90
2015,09,15,14,38,14.90
2015,09,15,14,39,14.90
2015,09,15,14,40,14.90
2015,09,15,14,41,14.90
2015,09,15,14,42,14.90
2015,09,15,14,43,14.90
2015,09,15,14,44,14.90
2015,09,15,14,45,14.80
2015,09,15,14,46,14.80
2015,09,15,14,47,14.80
2015,09,15,14,48,14.80
2015,09,15,14,49,14.80
2015,09,15,14,50,14.90
2015,09,15,14,51,14.90
2015,09,15,14,52,14.90
2015,09,15,14,53,14.90
2015,09,15,14,54,14.90
2015,09,15,14,55,14.80
2015,09,15,14,56,14.80
2015,09,15,14,57,14.80
2015,09,15,14,58,14.80
2015,09,15,14,59,14.80
2015,09,15,15,00,14.80
2015,09,15,15,01,14.80
2015,09,15,15,02,14.80
2015,09,15,15,03,14.80
2015,09,15,15,04,14.80
2015,09,15,15,05,14.80
2015,09,15,15,06,14.80
2015,09,15,15,07,14.90
2015,09,15,15,08,14.90
2015,09,15,15,09,14.90
2015,09,15,15,10,14.90
2015,09,15,15,11,14.90
2015,09,15,15,12,15.00
2015,09,15,15,13,15.00
2015,09,15,15,14,15.00
2015,09,15,15,15,15.10
2015,09,15,15,16,15.10
2015,09,15,15,17,15.10
2015,09,15,15,18,15.10
2015,09,15,15,19,15.10
2015,09,15,15,20,15.20
2015,09,15,15,21,15.10
2015,09,15,15,22,15.10
2015,09,15,15,23,15.10
2015,09,15,15,24,15.10
2015,09,15,15,25,15.10
2015,09,15,15,26,15.10
2015,09,15,15,27,15.10
2015,09,15,15,28,15.10
2015,09,15,15,29,15.20
2015,09,15,15,30,15.20
2015,09,15,15,31,15.20
2015,09,15,15,32,15.20
2015,09,15,15,33,15.20
2015,09,15,15,34,15.20
2015,09,15,15,35,15.20
2015,09,15,15,36,15.20
2015,09,15,15,37,15.20
2015,09,15,15,38,15.20
2015,09,15,15,39,15.20
2015,09,15,15,40,15.20
2015,09,15,15,41,15.20
2015,09,15,15,42,15.20
2015,09,15,15,43,15.20
2015,09,15,15,44,15.20
2015,09,15,15,45,15.20
2015,09,15,15,46,15.20
2015,09,15,15,47,15.20
2015,09,15,15,48,15.20
2015,09,15,15,49,15.20
2015,09,15,15,50,15.20
2015,09,15,15,51,15.20
2015,09,15,15,52,15.20
2015,09,15,15,53,15.20
2015,09,15,15,54,15.20
2015,09,15,15,55,15.30
2015,09,15,15,56,15.30
2015,09,15,15,57,15.30
2015,09,15,15,58,15.30
2015,09,15,15,59,15.30
2015,09,15,16,00,15.30
2015,09,15,16,01,15.40
2015,09,15,16,02,15.40
2015,09,15,16,03,15.40
2015,09,15,16,04,15.40
2015,09,15,16,05,15.40
2015,09,15,16,06,15.40
2015,09,15,16,07,15.40
2015,09,15,16,08,15.40
2015,09,15,16,09,15.40
2015,09,15,16,10,15.40
2015,09,15,16,11,15.40
2015,09,15,16,12,15.40
2015,09,15,16,13,15.40
2015,09,15,16,14,15.40
2015,09,15,16,15,15.40
2015,09,15,16,16,15.40
2015,09,15,16,17,15.40
2015,09,15,16,18,15.40
2015,09,15,16,19,15.40
2015,09,15,16,20,15.40
2015,09,15,16,21,15.40
2015,09,15,16,22,15.40
2015,09,15,16,23,15.40
2015,09,15,16,24,15.40
2015,09,15,16,25,15.50
2015,09,15,16,26,15.50
2015,09,15,16,27,15.50
2015,09,15,16,28,15.50
2015,09,15,16,29,15.50
2015,09,15,16,30,15.50
2015,09,15,16,31,15.60
2015,09,15,16,32,15.60
2015,09,15,16,33,15.60
2015,09,15,16,34,15.60
2015,09,15,16,35,15.60
2015,09,15,16,36,15.60
2015,09,15,16,37,15.50
2015,09,15,16,38,15.50
2015,09,15,16,39,15.50
2015,09,15,16,40,15.40
2015,09,15,16,41,15.40
2015,09,15,16,42,15.30
2015,09,15,16,43,15.30
2015,09,15,16,44,15.30
2015,09,15,16,45,15.30
2015,09,15,16,46,15.30
2015,09,15,16,47,15.20
2015,09,15,16,48,15.20
2015,09,15,16,49,15.20
2015,09,15,16,50,15.20
2015,09,15,16,51,15.20
2015,09,15,16,52,15.20
2015,09,15,16,53,15.10
2015,09,15,16,54,15.10
2015,09,15,16,55,15.10
2015,09,15,16,56,15.10
2015,09,15,16,57,15.10
2015,09,15,16,58,15.10
2015,09,15,16,59,15.00
2015,09,15,17,00,15.00
2015,09,15,17,01,15.00
2015,09,15,17,02,15.00
2015,09,15,17,03,14.90
2015,09,15,17,04,14.90
2015,09,15,17,05,14.90
2015,09,15,17,06,14.90
2015,09,15,17,07,14.90
2015,09,15,17,08,14.90
2015,09,15,17,09,14.90
2015,09,15,17,10,14.90
2015,09,15,17,11,14.90
2015,09,15,17,12,14.90
2015,09,15,17,13,14.90
2015,09,15,17,14,14.90
2015,09,15,17,15,14.90
2015,09,15,17,16,14.90
2015,09,15,17,17,14.80
2015,09,15,17,18,14.80
2015,09,15,17,19,14.80
2015,09,15,17,20,14.80
2015,09,15,17,21,14.80
2015,09,15,17,22,14.80
2015,09,15,17,23,14.80
2015,09,15,17,24,14.80
2015,09,15,17,25,14.80
2015,09,15,17,26,14.80
2015,09,15,17,27,14.90